Torna al catalogo

MEV-1

AttivoScienzaGEO
NORAD 44625·PAYLOAD·🇺🇸 United States

Lanciato Oct 9, 2019 da Baikonur Cosmodrome

Loading…

TLE

AggiornatoSource: Space-Track

Epoca: Sep 14, 2026, 04:52 UTC

1 44625U 19067B   26257.20286572 -.00000155  00000-0  00000+0 0  9999
2 44625   0.8207 267.9753 0004160 263.8733  50.5024  1.00273096 62453

Traccia MEV-1 in tempo reale con AllMySat

Download on the App Store